www.pogodaiklimat.ru

Погода и климат >> Архив погоды >> Россия >> Якутия >> Батамай


ПОГОДА в Батамае

  • Прогноз погоды в Батамае
  • Монитор погоды в Батамае
  • Климат города

АРХИВ ПОГОДЫ в Батамае

Время (UTC), дата Ветер
(напр.,м/с)
 
Видим.   Явления Облачность Т
(С)
Тd
(С)
f
(%)
Тe
(С)
Тes
(С)
Комфортность P
(гПа)
Po
(гПа)
Тmin
(С)
Tmax
(С)
R
(мм)
R24
(мм)
S
(см)
09 14.10 З 1 50 км 3/0
[Ac trans]
-5.8 -11.5 64 -8 -8 1020.6 1010.3
12 14.10 штиль 0 50 км 3/0
[Ac trans]
-12.6 -14.6 85 -13 -13 1021.4 1010.7 -2.6
15 14.10 С 1 50 км 3/0
[Ac trans]
-16.7 -18.0 90 -19 -19 1021.4 1010.7
18 14.10 штиль 0 50 км ясно -18.6 -19.8 90 -19 -19 1021.6 1010.7
21 14.10 С 1 50 км ясно -21.9 -23.2 89 -25 -25 1021.6 1010.7
00 15.10 С 1 50 км 1/0
[Ac trans]
-19.3 -20.5 90 -22 -22 1022.1 1011.2 -21.9 9
03 15.10 Ю 1 50 км 1/0
[Ac trans]
-5.0 -12.3 57 -7 -5 1021.4 1011.1
06 15.10 Ю 1 50 км 3/0
[Ac trans]
-3.4 -10.3 59 -5 -5 1021.4 1011.1
09 15.10 З 2 50 км 3/0
[Ac trans Cs]
-8.9 -14.4 64 -13 -13 1022.3 1011.8
12 15.10 СВ 1 50 км 1/0
[Ac trans]
-15.9 -17.2 90 -19 -19 1023.5 1012.8 -3.4
15 15.10 СЗ 1 50 км ясно -19.9 -21.1 90 -23 -23 1024.3 1013.4
18 15.10 С 1 50 км ясно -21.3 -21.9 95 -24 -24 1024.8 1013.9
21 15.10 СЗ 2 50 км 3/0
[Ci fib]
-15.4 -16.0 95 -20 -20 1025.5 1014.8
00 16.10 З 2 50 км 10/6 300 м
[Cb cap Ac trans Ci fib]
-12.3 -12.3 100 -17 -17 1025.7 1015.1 -21.3 9
03 16.10 З 3 50 км 10/4 300 м
[St Ci fib]
-9.2 -11.7 82 -15 -14 1025.7 1015.1
06 16.10 З 4 50 км 8/0
[Ac trans Ci fib]
-8.0 -9.0 92 -15 -15 1025.3 1014.8
09 16.10 З 4 50 км 10/3 300 м
[St Cs]
-9.7 -12.3 81 -17 -17 1025.9 1015.3
12 16.10 З 3 50 км 5/0
[Ac trans Ci fib]
-10.1 -12.7 81 -16 -16 1025.7 1015.1 -8.0
15 16.10 З 3 20 км слабый снег 10/0
[Cs]
-11.2 -12.5 90 -17 -17 1025.4 1014.9
18 16.10 З 3 20 км слабый снег 10/0
[Cs]
-11.9 -13.9 85 -18 -18 1025.8 1015.2
21 16.10 З 3 50 км {снег} 10/0
[Cs]
-12.5 -13.8 90 -19 -19 1026.2 1015.4
00 17.10 З 4 50 км {снег} 10/8 300 м
[St Ci fib]
-11.8 -13.1 90 -19 -19 1026.6 1016.0 -12.4 0.2 9
03 17.10 З 4 50 км 10/8 300 м
[St Ci fib]
-9.6 -10.8 91 -17 -16 1026.5 1015.9
06 17.10 З 4 50 км 10/6 300 м
[St Ci fib]
-9.3 -11.3 85 -16 -16 1026.7 1016.1
09 17.10 СЗ 1 50 км 9/9 300 м
[St]
-10.5 -12.5 85 -13 -13 1027.1 1016.5
12 17.10 С 1 50 км 3/3 300 м
[St]
-13.5 -14.1 95 -16 -16 1027.5 1016.7 -9.1
15 17.10 С 1 20 км слабый снег 10/0
[As op]
-14.3 -14.9 95 -17 -17 1027.7 1016.9
18 17.10 СВ 1 20 км слабый снег 10/0
[Ac trans Cs]
-14.1 -14.7 95 -17 -17 1027.5 1016.7
21 17.10 С 1 20 км слабый снег 10/0
[Ac trans Cs]
-15.6 -16.2 95 -18 -18 1027.2 1016.4
00 18.10 СВ 1 20 км слабый снег 10/0
[Ac trans Cs]
-15.3 -15.9 95 -18 -18 1027.5 1016.7 -15.9 0.2 9
03 18.10 В 3 20 км слабый снег 10/3 300 м
[St Cs]
-10.7 -12.7 85 -17 -16 1026.9 1016.3
06 18.10 В 4 10 км слабый снег 10/0
[Ac trans Cs]
-9.1 -13.0 73 -16 -16 1025.9 1015.3
09 18.10 В 2 50 км {снег} 10/8 300 м
[Cb cap Ac trans Cs]
-10.2 -13.0 80 -15 -15 1025.7 1015.1
12 18.10 СВ 3 20 км слабый снег 10/0
[As op]
-10.1 -12.9 80 -16 -16 1025.4 1014.9 -9.1 0.3
15 18.10 В 2 20 км слабый снег 10/0
[As op]
-10.5 -13.3 80 -15 -15 1025.1 1014.6
18 18.10 СВ 3 20 км слабый снег 10/0
[As op]
-11.4 -13.4 85 -17 -17 1024.9 1014.4
21 18.10 СВ 3 20 км слабый снег 10/0
[As op]
-12.9 -14.2 90 -19 -19 1024.6 1013.9
00 19.10 СВ 3 50 км {снег} 10/0
[Ac As]
-13.7 -15.0 90 -20 -20 1024.4 1013.7 -13.7 0.2 9
03 19.10 В 3 50 км 10/3 300 м
[St Ac trans Cs]
-12.9 -14.9 85 -19 -19 1024.4 1013.7
06 19.10 В 2 50 км 10/3 300 м
[St Ac trans Cs]
-12.0 -14.7 80 -17 -16 1024.0 1013.5
09 19.10 СВ 1 50 км 10/0
[Ac trans Cs]
-15.0 -17.0 85 -18 -18 1024.3 1013.6
12 19.10 СВ 2 50 км 10/0
[Ac trans Cs]
-16.7 -18.0 90 -22 -22 1025.3 1014.6 -12.0
15 19.10 С 1 50 км 5/0
[Ci fib]
-20.7 -21.9 90 -24 -24 1026.4 1015.4
18 19.10 ЮВ 1 50 км 3/0
[Ci fib]
-22.7 -23.9 90 -26 -26 1026.8 1015.6
21 19.10 С 1 50 км 3/0
[Ci fib]
-21.9 -23.2 89 -25 -25 1027.4 1016.4
00 20.10 С 1 50 км 10/0
[Ac trans Ci fib]
-19.4 -20.6 90 -22 -22 1027.9 1016.9 -22.7 9
03 20.10 ЮЗ 1 50 км 10/0
[Ac trans Cs]
-8.1 -12.7 69 -10 -9 1027.8 1017.2
06 20.10 ЮЗ 1 50 км 10/0
[Ac trans Cs]
-7.6 -9.8 84 -10 -10 1028.1 1017.5
09 20.10 З 1 20 км слабый снег 10/0
[Ac trans Cs]
-8.5 -9.2 95 -11 -11 1029.1 1018.5
12 20.10 СЗ 1 20 км слабый снег 10/0
[As op]
-10.4 -11.0 95 -13 -13 1029.4 1018.8 -7.6 0.0
15 20.10 штиль 0 20 км слабый снег 10/0
[As op]
-10.9 -11.5 95 -11 -11 1029.3 1018.7
18 20.10 СЗ 1 10 км слабый снег 10/0
[As op]
-10.9 -11.5 95 -13 -13 1029.9 1019.3
21 20.10 З 1 20 км слабый снег 10/0
[As op]
-11.3 -11.9 95 -14 -14 1030.1 1019.5
00 21.10 СЗ 1 20 км слабый снег 10/0
[Ac trans Cs]
-11.1 -11.7 95 -13 -13 1031.1 1020.5 -11.5 0.3 9
03 21.10 З 1 4000 м слабый снег 10/0
[Ac trans Cs]
-10.4 -11.7 90 -13 -12 1031.5 1020.9
06 21.10 Ю 2 50 км {снег} 8/3 300 м
[St Ac trans Ci fib]
-8.9 -11.8 79 -13 -13 1031.5 1020.9

 

Местоположение метеостанции Батамай (Якутия, Россия): широта 63.52 долгота 129.40 высота над уровнем моря 79 м.

В архиве по умолчанию представлена погода в Батамае за последнюю неделю. Архивные данные за месяц целиком и за предыдущие месяцы, начиная с января 2011 года, Вы можете получить, выбрав интересующий диапазон дат из раскрывающегося списка и нажав кнопку "Ввод!".

Внимание! Время в таблицах - всемирное. Для получения местного времени необходимо прибавить поправку, которая в Батамае равна 9 ч.

Смотрите также архив погоды в соседних городах и на ближайших метеорологических станциях:

Погода в Сеген-Кюели (Якутия, Россия) (69 км)
Погода в Намцах (Якутия, Россия) (90 км)
Погода в Сангаре (Якутия, Россия) (109 км)
Погода в Верхоянском Перевозе (Якутия, Россия) (131 км)
Погода в Якутске (Якутия, Россия) (169 км)
Погода в Сого-Хае (Якутия, Россия) (169 км)
Погода в Бердигестяхе (Якутия, Россия) (185 км)
Погода в Себян-Кюеле (Якутия, Россия) (200 км)
Погода в Покровске (Якутия, Россия) (227 км)
Погода в Хатырык-Хомо (Якутия, Россия) (231 км)

Пояснения к столбцам:

Ветер - указаны скорость ветра в м/с - средняя за 10 мин, порывы в срок и между сроками (в фигурных скобках) и направление, откуда дует ветер: С - северный, СВ - северо-восточный, В - восточный, ЮВ - юго-восточный, Ю - южный, ЮЗ - юго-западный, З - западный, СЗ - северо-западный.
Видимость - горизонтальная дальность видимости в метрах или километрах. При видимости от 1 до 10 км при отсутствии осадков обычно наблюдается дымка, при ухудшении видимости до 1 км и менее - туман. В сухую погоду видимость может ухудшаться дымом, пылью или мглою.
Явления - указаны атмосферные явления, наблюдавшиеся в срок или в последний час перед сроком; фигурными скобками обозначены явления, наблюдавшиеся между сроками (за 1-3 часа до срока); квадратными скобками обозначены град или гололедные отложения с указанием их диаметра в мм.
Облачность - указаны через наклонную черту общая и нижняя облачность в баллах и высота нижней границы облаков в метрах; квадратными скобками обозначены формы облаков: Ci - перистые, Cs - перисто-слоистые, Cc - перисто-кучевые, Ac - высококучевые, As - высокослоистые, Sc - слоисто-кучевые, Ns - слоисто-дождевые, Cu - кучевые, Cb - кучево-дождевые. Подробнее классификацию облаков см. в Атласе облаков (PDF).
T - Температура воздуха - температура, измеренная на высоте 2 м над землей.
Td - Температура точки росы - температура, при понижении до которой содержащийся в воздухе водяной пар достигнет насыщения.
f - Относительная влажность воздуха - влажноcть воздуха, измеренная на высоте 2 м над землей.
Te - Эффективная температура - температура, которую ощущает одетый по сезону человек в тени. Характеристика душности погоды. При расчете учитывается влияние влажности воздуха и скорости ветра на теплоощущения человека.
Tes - Эффективная температура на солнце - температура, которую ощущает человек, с поправкой на солнечный нагрев. Характеристика знойности погоды. Зависит от высоты солнца над горизонтом, облачности и скорости ветра. Ночью, в пасмурную погоду, а также при ветре 12 м/с и более поправка равна нулю.
P - Атмосферное давление - приведенное к уровню моря атмосферное давление.
Po - Атмосферное давление - измеренное на уровне метеостанции атмосферное давление.
Tmin - Минимальная температура - минимум температуры воздуха на высоте 2 м над землей.
Tmax - Максимальная температура - максимум температуры воздуха на высоте 2 м над землей.
R - Количество осадков - Количество выпавших осадков за период времени, мм. При наведении курсора мыши на число - период времени, за который выпало указанное количество осадков.
R24 - Количество осадков - Количество выпавших осадков за 24 часа, мм.
S - Снежный покров - Высота снежного покрова, см. При наведении курсора мыши на число - состояние снежного покрова и степень покрытия местности в баллах.